Time,TemperatureF,DewpointF,PressureIn,WindDirection,WindDirectionDegrees,WindSpeedMPH,WindSpeedGustMPH,Humidity,HourlyPrecipIn,Conditions,Clouds,dailyrainin,SoftwareType,DateUTC
2013-07-12 00:02:00,71.0,68.6,29.95,North,355,0.0,0.0,92,0.00,,,0.00,Wunderground v.1.15,2013-07-12 04:02:00,
2013-07-12 00:04:00,71.0,68.6,29.95,NNW,342,0.0,0.0,92,0.00,,,0.00,Wunderground v.1.15,2013-07-12 04:04:00,
2013-07-12 00:10:00,70.9,68.5,29.95,NNW,342,0.0,0.0,92,0.00,,,0.00,Wunderground v.1.15,2013-07-12 04:10:00,
2013-07-12 00:12:00,70.9,68.5,29.95,NNW,342,0.0,0.0,92,0.00,,,0.00,Wunderground v.1.15,2013-07-12 04:12:00,
2013-07-12 00:18:00,70.9,68.5,29.96,NNW,342,0.0,0.0,92,0.00,,,0.00,Wunderground v.1.15,2013-07-12 04:18:00,
2013-07-12 00:24:00,70.9,68.5,29.96,NNW,342,0.0,0.0,92,0.00,,,0.00,Wunderground v.1.15,2013-07-12 04:24:00,
2013-07-12 00:30:00,70.8,68.4,29.96,NNW,341,0.0,0.0,92,0.00,,,0.00,Wunderground v.1.15,2013-07-12 04:30:00,
2013-07-12 00:36:00,70.8,68.4,29.95,NNW,341,0.0,0.0,92,0.00,,,0.00,Wunderground v.1.15,2013-07-12 04:36:00,
2013-07-12 00:42:00,70.7,68.3,29.95,NNW,334,0.0,0.0,92,0.00,,,0.00,Wunderground v.1.15,2013-07-12 04:42:00,
2013-07-12 00:48:00,70.7,68.3,29.95,NNW,332,0.0,0.0,92,0.00,,,0.00,Wunderground v.1.15,2013-07-12 04:48:00,
2013-07-12 00:54:00,70.6,68.2,29.95,NW,312,0.0,0.0,92,0.00,,,0.00,Wunderground v.1.15,2013-07-12 04:54:00,
2013-07-12 01:00:00,70.5,68.1,29.95,West,266,0.0,0.0,92,0.00,,,0.00,Wunderground v.1.15,2013-07-12 05:00:00,
2013-07-12 01:06:00,70.4,68.0,29.94,West,266,0.0,0.0,92,0.00,,,0.00,Wunderground v.1.15,2013-07-12 05:06:00,
2013-07-12 01:12:00,70.4,68.0,29.95,West,276,0.0,0.0,92,0.00,,,0.00,Wunderground v.1.15,2013-07-12 05:12:00,
2013-07-12 01:18:00,70.3,67.9,29.95,West,276,0.0,0.0,92,0.00,,,0.00,Wunderground v.1.15,2013-07-12 05:18:00,
2013-07-12 01:24:00,70.3,67.9,29.95,West,276,0.0,0.0,92,0.00,,,0.00,Wunderground v.1.15,2013-07-12 05:24:00,
2013-07-12 01:30:00,70.3,67.9,29.95,West,276,0.0,0.0,92,0.00,,,0.00,Wunderground v.1.15,2013-07-12 05:30:00,
2013-07-12 01:36:00,70.3,67.9,29.95,West,276,0.0,0.0,92,0.00,,,0.00,Wunderground v.1.15,2013-07-12 05:36:00,
2013-07-12 01:42:00,70.3,67.9,29.95,West,279,0.0,0.0,92,0.00,,,0.00,Wunderground v.1.15,2013-07-12 05:42:00,
2013-07-12 01:48:00,70.3,67.9,29.95,West,276,0.0,1.0,92,0.00,,,0.00,Wunderground v.1.15,2013-07-12 05:48:00,
2013-07-12 01:54:00,70.3,67.9,29.96,NW,321,1.0,1.0,92,0.00,,,0.00,Wunderground v.1.15,2013-07-12 05:54:00,
2013-07-12 02:00:00,70.4,68.0,29.96,NW,312,0.0,0.0,92,0.00,,,0.00,Wunderground v.1.15,2013-07-12 06:00:00,
2013-07-12 02:06:00,70.4,68.0,29.96,NW,324,0.0,0.0,92,0.00,,,0.00,Wunderground v.1.15,2013-07-12 06:06:00,
2013-07-12 02:12:00,70.5,68.1,29.96,WNW,295,0.0,2.0,92,0.00,,,0.00,Wunderground v.1.15,2013-07-12 06:12:00,
2013-07-12 02:18:00,70.5,68.1,29.96,West,281,0.0,2.0,92,0.00,,,0.00,Wunderground v.1.15,2013-07-12 06:18:00,
2013-07-12 02:24:00,70.6,68.2,29.96,West,281,0.0,1.0,92,0.00,,,0.00,Wunderground v.1.15,2013-07-12 06:24:00,
2013-07-12 02:30:00,70.6,68.2,29.95,NW,320,1.0,1.0,92,0.00,,,0.00,Wunderground v.1.15,2013-07-12 06:30:00,
2013-07-12 02:36:00,70.6,68.2,29.95,West,268,1.0,4.0,92,0.00,,,0.00,Wunderground v.1.15,2013-07-12 06:36:00,
2013-07-12 02:42:00,70.6,68.2,29.95,West,270,1.0,1.0,92,0.00,,,0.00,Wunderground v.1.15,2013-07-12 06:42:00,
2013-07-12 02:48:00,70.7,68.3,29.95,West,273,0.0,1.0,92,0.00,,,0.00,Wunderground v.1.15,2013-07-12 06:48:00,
2013-07-12 02:54:00,70.8,68.4,29.95,NNW,331,0.0,1.0,92,0.00,,,0.00,Wunderground v.1.15,2013-07-12 06:54:00,
2013-07-12 03:00:00,70.8,68.4,29.95,NW,304,1.0,1.0,92,0.00,,,0.00,Wunderground v.1.15,2013-07-12 07:00:00,
2013-07-12 03:06:00,70.9,68.5,29.95,NW,306,1.0,1.0,92,0.00,,,0.00,Wunderground v.1.15,2013-07-12 07:06:00,
2013-07-12 03:12:00,70.9,68.5,29.95,WNW,301,1.0,1.0,92,0.00,,,0.00,Wunderground v.1.15,2013-07-12 07:12:00,
2013-07-12 03:18:00,71.0,68.6,29.94,North,350,0.0,1.0,92,0.00,,,0.00,Wunderground v.1.15,2013-07-12 07:18:00,
2013-07-12 03:24:00,71.0,68.6,29.94,WNW,298,0.0,2.0,92,0.00,,,0.00,Wunderground v.1.15,2013-07-12 07:24:00,
2013-07-12 03:30:00,71.1,68.7,29.93,WNW,289,0.0,1.0,92,0.00,,,0.00,Wunderground v.1.15,2013-07-12 07:30:00,
2013-07-12 03:36:00,71.1,68.7,29.93,West,274,0.0,1.0,92,0.00,,,0.00,Wunderground v.1.15,2013-07-12 07:36:00,
2013-07-12 03:42:00,71.1,68.7,29.93,NW,322,0.0,0.0,92,0.00,,,0.00,Wunderground v.1.15,2013-07-12 07:42:00,
2013-07-12 03:48:00,71.2,68.8,29.93,NNW,340,0.0,0.0,92,0.00,,,0.00,Wunderground v.1.15,2013-07-12 07:48:00,
2013-07-12 03:54:00,71.3,68.9,29.93,NNW,340,0.0,0.0,92,0.00,,,0.00,Wunderground v.1.15,2013-07-12 07:54:00,
2013-07-12 04:00:00,71.3,68.9,29.93,NNW,340,0.0,0.0,92,0.00,,,0.00,Wunderground v.1.15,2013-07-12 08:00:00,
2013-07-12 04:06:00,71.3,68.9,29.93,NNW,340,0.0,0.0,92,0.00,,,0.00,Wunderground v.1.15,2013-07-12 08:06:00,
2013-07-12 04:12:00,71.4,69.0,29.93,NNW,340,0.0,0.0,92,0.00,,,0.00,Wunderground v.1.15,2013-07-12 08:12:00,
2013-07-12 04:18:00,71.4,69.0,29.92,NNW,340,0.0,0.0,92,0.00,,,0.00,Wunderground v.1.15,2013-07-12 08:18:00,
2013-07-12 04:24:00,71.4,69.0,29.92,NW,314,0.0,1.0,92,0.00,,,0.00,Wunderground v.1.15,2013-07-12 08:24:00,
2013-07-12 04:30:00,71.4,69.0,29.92,NNW,339,0.0,0.0,92,0.00,,,0.00,Wunderground v.1.15,2013-07-12 08:30:00,
2013-07-12 04:36:00,71.3,68.9,29.92,NNW,339,0.0,0.0,92,0.00,,,0.00,Wunderground v.1.15,2013-07-12 08:36:00,
2013-07-12 04:42:00,71.3,68.9,29.92,WNW,295,0.0,1.0,92,0.00,,,0.00,Wunderground v.1.15,2013-07-12 08:42:00,
2013-07-12 04:48:00,71.3,68.9,29.91,NW,314,0.0,1.0,92,0.00,,,0.00,Wunderground v.1.15,2013-07-12 08:48:00,
2013-07-12 04:54:00,71.3,68.9,29.91,NW,311,0.0,0.0,92,0.00,,,0.00,Wunderground v.1.15,2013-07-12 08:54:00,
2013-07-12 05:00:00,71.3,68.9,29.92,NW,311,0.0,0.0,92,0.00,,,0.00,Wunderground v.1.15,2013-07-12 09:00:00,
2013-07-12 05:06:00,71.3,68.9,29.92,NW,311,0.0,0.0,92,0.00,,,0.00,Wunderground v.1.15,2013-07-12 09:06:00,
2013-07-12 05:12:00,71.3,68.9,29.92,NW,311,0.0,0.0,92,0.00,,,0.00,Wunderground v.1.15,2013-07-12 09:12:00,
2013-07-12 05:18:00,71.4,69.0,29.92,NW,311,0.0,0.0,92,0.00,,,0.00,Wunderground v.1.15,2013-07-12 09:18:00,
2013-07-12 05:24:00,71.4,69.0,29.92,NW,311,0.0,0.0,92,0.00,,,0.00,Wunderground v.1.15,2013-07-12 09:24:00,
2013-07-12 05:30:00,71.3,68.9,29.92,NW,311,0.0,0.0,92,0.00,,,0.00,Wunderground v.1.15,2013-07-12 09:30:00,
2013-07-12 05:36:00,71.3,68.9,29.92,NW,311,0.0,0.0,92,0.00,,,0.00,Wunderground v.1.15,2013-07-12 09:36:00,
2013-07-12 05:42:00,71.3,68.9,29.92,NW,311,0.0,0.0,92,0.00,,,0.00,Wunderground v.1.15,2013-07-12 09:42:00,
2013-07-12 05:48:00,71.2,68.8,29.92,NNW,339,0.0,1.0,92,0.00,,,0.00,Wunderground v.1.15,2013-07-12 09:48:00,
2013-07-12 05:54:00,71.2,68.8,29.92,NNW,339,0.0,0.0,92,0.00,,,0.00,Wunderground v.1.15,2013-07-12 09:54:00,
2013-07-12 06:00:00,71.2,68.8,29.93,NNW,340,0.0,0.0,92,0.00,,,0.00,Wunderground v.1.15,2013-07-12 10:00:00,
2013-07-12 06:06:00,71.2,68.8,29.93,NNW,344,0.0,0.0,92,0.00,,,0.00,Wunderground v.1.15,2013-07-12 10:06:00,
2013-07-12 06:12:00,71.2,68.8,29.93,NNW,344,0.0,0.0,92,0.00,,,0.00,Wunderground v.1.15,2013-07-12 10:12:00,
2013-07-12 06:18:00,71.2,68.8,29.94,North,353,0.0,0.0,92,0.00,,,0.00,Wunderground v.1.15,2013-07-12 10:18:00,
2013-07-12 06:24:00,71.2,68.8,29.94,North,353,0.0,0.0,92,0.00,,,0.00,Wunderground v.1.15,2013-07-12 10:24:00,
2013-07-12 06:30:00,71.2,68.8,29.94,North,353,0.0,0.0,92,0.00,,,0.00,Wunderground v.1.15,2013-07-12 10:30:00,
2013-07-12 06:36:00,71.2,68.8,29.94,North,353,0.0,0.0,92,0.00,,,0.00,Wunderground v.1.15,2013-07-12 10:36:00,
2013-07-12 06:42:00,71.2,68.8,29.94,North,353,0.0,0.0,92,0.00,,,0.00,Wunderground v.1.15,2013-07-12 10:42:00,
2013-07-12 06:48:00,71.2,68.8,29.94,North,353,0.0,0.0,92,0.00,,,0.00,Wunderground v.1.15,2013-07-12 10:48:00,
2013-07-12 06:54:00,71.2,68.8,29.94,North,353,0.0,0.0,92,0.00,,,0.00,Wunderground v.1.15,2013-07-12 10:54:00,
2013-07-12 07:00:00,71.3,68.9,29.94,North,353,0.0,0.0,92,0.00,,,0.00,Wunderground v.1.15,2013-07-12 11:00:00,
2013-07-12 07:06:00,71.4,69.0,29.95,North,353,0.0,0.0,92,0.00,,,0.00,Wunderground v.1.15,2013-07-12 11:06:00,
2013-07-12 07:12:00,71.4,69.0,29.95,North,353,0.0,0.0,92,0.00,,,0.00,Wunderground v.1.15,2013-07-12 11:12:00,
2013-07-12 07:18:00,71.5,69.1,29.95,North,353,0.0,0.0,92,0.00,,,0.00,Wunderground v.1.15,2013-07-12 11:18:00,
2013-07-12 07:24:00,71.6,69.2,29.95,North,353,0.0,0.0,92,0.00,,,0.00,Wunderground v.1.15,2013-07-12 11:24:00,
2013-07-12 07:30:00,71.6,69.2,29.95,North,353,0.0,0.0,92,0.00,,,0.00,Wunderground v.1.15,2013-07-12 11:30:00,
2013-07-12 07:36:00,71.6,69.2,29.95,ENE,61,0.0,2.0,92,0.00,,,0.00,Wunderground v.1.15,2013-07-12 11:36:00,
2013-07-12 07:42:00,71.7,69.3,29.96,ENE,61,0.0,0.0,92,0.00,,,0.00,Wunderground v.1.15,2013-07-12 11:42:00,
2013-07-12 07:48:00,71.8,69.3,29.96,ENE,61,0.0,0.0,92,0.00,,,0.00,Wunderground v.1.15,2013-07-12 11:48:00,
2013-07-12 07:54:00,71.9,69.4,29.96,ENE,61,0.0,0.0,92,0.00,,,0.00,Wunderground v.1.15,2013-07-12 11:54:00,
2013-07-12 08:00:00,72.0,69.5,29.96,ENE,61,0.0,0.0,92,0.00,,,0.00,Wunderground v.1.15,2013-07-12 12:00:00,
2013-07-12 08:06:00,72.0,69.5,29.96,ENE,61,0.0,0.0,92,0.00,,,0.00,Wunderground v.1.15,2013-07-12 12:06:00,
2013-07-12 08:12:00,72.1,69.6,29.96,ENE,61,0.0,0.0,92,0.00,,,0.00,Wunderground v.1.15,2013-07-12 12:12:00,
2013-07-12 08:18:00,72.2,69.7,29.96,ENE,61,0.0,0.0,92,0.00,,,0.00,Wunderground v.1.15,2013-07-12 12:18:00,
2013-07-12 08:24:00,72.2,69.7,29.96,ENE,75,0.0,0.0,92,0.00,,,0.00,Wunderground v.1.15,2013-07-12 12:24:00,
2013-07-12 08:30:00,72.4,69.9,29.97,ENE,76,0.0,1.0,92,0.00,,,0.00,Wunderground v.1.15,2013-07-12 12:30:00,
2013-07-12 08:36:00,72.5,70.0,29.97,ENE,76,0.0,1.0,92,0.00,,,0.00,Wunderground v.1.15,2013-07-12 12:36:00,
2013-07-12 08:42:00,72.6,70.1,29.97,ESE,110,0.0,0.0,92,0.00,,,0.00,Wunderground v.1.15,2013-07-12 12:42:00,
2013-07-12 08:48:00,72.8,70.3,29.96,ESE,115,0.0,0.0,92,0.00,,,0.00,Wunderground v.1.15,2013-07-12 12:48:00,
2013-07-12 08:54:00,72.9,70.4,29.97,ESE,115,0.0,0.0,92,0.00,,,0.00,Wunderground v.1.15,2013-07-12 12:54:00,
2013-07-12 09:00:00,73.2,70.7,29.96,ESE,115,0.0,0.0,92,0.00,,,0.00,Wunderground v.1.15,2013-07-12 13:00:00,
2013-07-12 09:06:00,73.3,70.8,29.97,ESE,116,0.0,0.0,92,0.00,,,0.00,Wunderground v.1.15,2013-07-12 13:06:00,
2013-07-12 09:12:00,73.3,70.8,29.97,SE,135,0.0,0.0,92,0.00,,,0.00,Wunderground v.1.15,2013-07-12 13:12:00,
2013-07-12 09:18:00,73.6,71.1,29.97,SE,132,0.0,0.0,92,0.00,,,0.00,Wunderground v.1.15,2013-07-12 13:18:00,
2013-07-12 09:24:00,73.9,71.4,29.97,SE,132,0.0,0.0,92,0.00,,,0.00,Wunderground v.1.15,2013-07-12 13:24:00,
2013-07-12 09:30:00,74.0,71.2,29.97,SE,132,0.0,0.0,91,0.00,,,0.00,Wunderground v.1.15,2013-07-12 13:30:00,
2013-07-12 09:36:00,74.2,71.7,29.97,SE,132,0.0,0.0,92,0.00,,,0.00,Wunderground v.1.15,2013-07-12 13:36:00,
2013-07-12 09:42:00,74.5,71.7,29.97,SE,132,0.0,0.0,91,0.00,,,0.00,Wunderground v.1.15,2013-07-12 13:42:00,
2013-07-12 09:48:00,74.8,72.0,29.97,SE,132,0.0,1.0,91,0.00,,,0.00,Wunderground v.1.15,2013-07-12 13:48:00,
2013-07-12 09:54:00,75.0,71.9,29.97,NE,52,0.0,0.0,90,0.00,,,0.00,Wunderground v.1.15,2013-07-12 13:54:00,
2013-07-12 10:00:00,75.2,71.7,29.97,NE,51,0.0,0.0,89,0.00,,,0.00,Wunderground v.1.15,2013-07-12 14:00:00,
2013-07-12 10:06:00,75.4,71.9,29.97,NE,51,0.0,0.0,89,0.00,,,0.00,Wunderground v.1.15,2013-07-12 14:06:00,
2013-07-12 10:12:00,75.8,72.7,29.97,NE,51,0.0,0.0,90,0.00,,,0.00,Wunderground v.1.15,2013-07-12 14:12:00,
2013-07-12 10:18:00,76.1,72.3,29.97,NE,51,0.0,0.0,88,0.00,,,0.00,Wunderground v.1.15,2013-07-12 14:18:00,
2013-07-12 10:24:00,76.3,72.5,29.97,NE,51,0.0,0.0,88,0.00,,,0.00,Wunderground v.1.15,2013-07-12 14:24:00,
2013-07-12 10:30:00,76.4,72.6,29.97,NE,51,0.0,0.0,88,0.00,,,0.00,Wunderground v.1.15,2013-07-12 14:30:00,
2013-07-12 10:36:00,76.6,72.4,29.97,NE,51,0.0,0.0,87,0.00,,,0.00,Wunderground v.1.15,2013-07-12 14:36:00,
2013-07-12 10:42:00,77.0,72.8,29.97,NE,51,0.0,0.0,87,0.00,,,0.00,Wunderground v.1.15,2013-07-12 14:42:00,
2013-07-12 10:48:00,77.1,72.9,29.98,NE,51,0.0,0.0,87,0.00,,,0.00,Wunderground v.1.15,2013-07-12 14:48:00,
2013-07-12 10:54:00,77.2,72.7,29.98,NE,51,0.0,0.0,86,0.00,,,0.00,Wunderground v.1.15,2013-07-12 14:54:00,
2013-07-12 11:00:00,77.3,72.4,29.98,NE,51,0.0,0.0,85,0.00,,,0.00,Wunderground v.1.15,2013-07-12 15:00:00,
2013-07-12 11:06:00,77.4,72.5,29.98,NE,51,0.0,1.0,85,0.00,,,0.00,Wunderground v.1.15,2013-07-12 15:06:00,
2013-07-12 11:12:00,77.4,72.5,29.98,NE,54,0.0,0.0,85,0.00,,,0.00,Wunderground v.1.15,2013-07-12 15:12:00,
2013-07-12 11:18:00,77.4,72.9,29.98,NE,50,0.0,0.0,86,0.00,,,0.00,Wunderground v.1.15,2013-07-12 15:18:00,
2013-07-12 11:24:00,77.5,73.3,29.98,NE,50,0.0,0.0,87,0.00,,,0.00,Wunderground v.1.15,2013-07-12 15:24:00,
2013-07-12 11:30:00,77.5,72.6,29.98,NE,52,0.0,0.0,85,0.00,,,0.00,Wunderground v.1.15,2013-07-12 15:30:00,
2013-07-12 11:36:00,77.4,72.9,29.98,NE,52,0.0,0.0,86,0.00,,,0.00,Wunderground v.1.15,2013-07-12 15:36:00,
2013-07-12 11:42:00,77.3,72.8,29.98,NE,52,0.0,0.0,86,0.00,,,0.00,Wunderground v.1.15,2013-07-12 15:42:00,
2013-07-12 11:48:00,77.2,72.7,29.98,NE,52,0.0,0.0,86,0.00,,,0.00,Wunderground v.1.15,2013-07-12 15:48:00,
2013-07-12 11:54:00,77.4,73.2,29.98,NE,52,0.0,0.0,87,0.00,,,0.00,Wunderground v.1.15,2013-07-12 15:54:00,
2013-07-12 12:00:00,77.4,73.2,29.98,NE,52,0.0,0.0,87,0.00,,,0.00,Wunderground v.1.15,2013-07-12 16:00:00,
2013-07-12 12:06:00,77.3,73.1,29.98,NE,56,0.0,0.0,87,0.00,,,0.00,Wunderground v.1.15,2013-07-12 16:06:00,
2013-07-12 12:12:00,77.6,73.1,29.98,SSE,152,0.0,0.0,86,0.00,,,0.00,Wunderground v.1.15,2013-07-12 16:12:00,
2013-07-12 12:18:00,78.1,72.9,29.98,South,171,0.0,2.0,84,0.00,,,0.00,Wunderground v.1.15,2013-07-12 16:18:00,
2013-07-12 12:24:00,78.4,73.9,29.98,SE,126,0.0,1.0,86,0.00,,,0.00,Wunderground v.1.15,2013-07-12 16:24:00,
2013-07-12 12:30:00,78.4,73.5,29.97,South,185,1.0,1.0,85,0.00,,,0.00,Wunderground v.1.15,2013-07-12 16:30:00,
2013-07-12 12:36:00,79.0,73.7,29.98,SSE,160,1.0,1.0,84,0.00,,,0.00,Wunderground v.1.15,2013-07-12 16:36:00,
2013-07-12 12:42:00,79.5,73.9,29.98,SE,142,1.0,2.0,83,0.00,,,0.00,Wunderground v.1.15,2013-07-12 16:42:00,
2013-07-12 12:48:00,79.6,74.0,29.97,SE,130,1.0,2.0,83,0.00,,,0.00,Wunderground v.1.15,2013-07-12 16:48:00,
2013-07-12 12:54:00,79.7,74.1,29.98,SSE,160,1.0,4.0,83,0.00,,,0.00,Wunderground v.1.15,2013-07-12 16:54:00,
2013-07-12 13:00:00,79.4,73.4,29.97,SSE,147,1.0,3.0,82,0.00,,,0.00,Wunderground v.1.15,2013-07-12 17:00:00,
2013-07-12 13:06:00,79.3,73.7,29.97,South,176,2.0,4.0,83,0.00,,,0.00,Wunderground v.1.15,2013-07-12 17:06:00,
2013-07-12 13:12:00,80.0,75.1,29.98,SSE,149,2.0,2.0,85,0.00,,,0.00,Wunderground v.1.15,2013-07-12 17:12:00,
2013-07-12 13:18:00,80.2,73.1,29.98,SSW,200,1.0,2.0,79,0.00,,,0.00,Wunderground v.1.15,2013-07-12 17:18:00,
2013-07-12 13:24:00,79.6,72.9,29.97,South,183,2.0,2.0,80,0.00,,,0.00,Wunderground v.1.15,2013-07-12 17:24:00,
2013-07-12 13:30:00,79.9,73.5,29.97,WSW,247,2.0,2.0,81,0.00,,,0.00,Wunderground v.1.15,2013-07-12 17:30:00,
2013-07-12 13:36:00,80.2,73.8,29.97,SSE,163,1.0,4.0,81,0.00,,,0.00,Wunderground v.1.15,2013-07-12 17:36:00,
2013-07-12 13:42:00,80.6,73.9,29.97,WSW,237,2.0,2.0,80,0.00,,,0.00,Wunderground v.1.15,2013-07-12 17:42:00,
2013-07-12 13:48:00,81.1,75.1,29.97,WSW,257,2.0,2.0,82,0.00,,,0.00,Wunderground v.1.15,2013-07-12 17:48:00,
2013-07-12 13:54:00,80.9,72.6,29.97,SSE,168,1.0,3.0,76,0.00,,,0.00,Wunderground v.1.15,2013-07-12 17:54:00,
2013-07-12 14:00:00,80.1,72.6,29.97,South,169,2.0,2.0,78,0.00,,,0.00,Wunderground v.1.15,2013-07-12 18:00:00,
2013-07-12 14:06:00,80.3,73.6,29.97,South,172,2.0,3.0,80,0.00,,,0.00,Wunderground v.1.15,2013-07-12 18:06:00,
2013-07-12 14:12:00,80.7,73.2,29.97,WSW,242,2.0,4.0,78,0.00,,,0.00,Wunderground v.1.15,2013-07-12 18:12:00,
2013-07-12 14:18:00,80.8,72.9,29.97,SE,133,1.0,4.0,77,0.00,,,0.00,Wunderground v.1.15,2013-07-12 18:18:00,
2013-07-12 14:24:00,80.4,72.1,29.97,SSE,155,1.0,5.0,76,0.00,,,0.00,Wunderground v.1.15,2013-07-12 18:24:00,
2013-07-12 14:30:00,80.2,73.1,29.97,West,262,2.0,3.0,79,0.00,,,0.00,Wunderground v.1.15,2013-07-12 18:30:00,
2013-07-12 14:36:00,80.2,72.3,29.96,SSE,149,2.0,3.0,77,0.00,,,0.00,Wunderground v.1.15,2013-07-12 18:36:00,
2013-07-12 14:42:00,80.9,73.8,29.96,West,260,2.0,5.0,79,0.00,,,0.00,Wunderground v.1.15,2013-07-12 18:42:00,
2013-07-12 14:48:00,81.2,72.9,29.96,SW,234,2.0,5.0,76,0.00,,,0.00,Wunderground v.1.15,2013-07-12 18:48:00,
2013-07-12 14:54:00,80.5,72.6,29.96,SE,139,2.0,2.0,77,0.00,,,0.00,Wunderground v.1.15,2013-07-12 18:54:00,
2013-07-12 15:00:00,80.0,72.9,29.96,WSW,255,2.0,2.0,79,0.00,,,0.00,Wunderground v.1.15,2013-07-12 19:00:00,
2013-07-12 15:06:00,79.8,72.7,29.96,West,262,1.0,3.0,79,0.00,,,0.00,Wunderground v.1.15,2013-07-12 19:06:00,
2013-07-12 15:12:00,79.6,72.1,29.96,SW,218,1.0,1.0,78,0.00,,,0.00,Wunderground v.1.15,2013-07-12 19:12:00,
2013-07-12 15:18:00,79.4,71.9,29.97,SSE,160,1.0,1.0,78,0.00,,,0.00,Wunderground v.1.15,2013-07-12 19:18:00,
2013-07-12 15:24:00,79.3,72.6,29.96,SSE,153,1.0,2.0,80,0.00,,,0.00,Wunderground v.1.15,2013-07-12 19:24:00,
2013-07-12 15:30:00,79.1,72.4,29.96,SW,235,1.0,2.0,80,0.00,,,0.00,Wunderground v.1.15,2013-07-12 19:30:00,
2013-07-12 15:36:00,78.9,72.9,29.96,SW,232,1.0,2.0,82,0.00,,,0.00,Wunderground v.1.15,2013-07-12 19:36:00,
2013-07-12 15:42:00,78.7,72.4,29.96,West,265,0.0,1.0,81,0.00,,,0.00,Wunderground v.1.15,2013-07-12 19:42:00,
2013-07-12 15:48:00,78.6,73.0,29.96,West,267,1.0,1.0,83,0.00,,,0.00,Wunderground v.1.15,2013-07-12 19:48:00,
2013-07-12 15:54:00,78.4,73.2,29.95,West,264,0.0,2.0,84,0.00,,,0.00,Wunderground v.1.15,2013-07-12 19:54:00,
2013-07-12 16:02:00,78.3,73.1,29.96,West,264,0.0,1.0,84,0.00,,,0.00,Wunderground v.1.15,2013-07-12 20:02:00,
2013-07-12 16:08:00,78.3,73.1,29.96,West,264,0.0,1.0,84,0.00,,,0.00,Wunderground v.1.15,2013-07-12 20:08:00,
2013-07-12 16:14:00,78.4,73.2,29.95,West,274,0.0,0.0,84,0.00,,,0.00,Wunderground v.1.15,2013-07-12 20:14:00,
2013-07-12 16:20:00,78.4,73.5,29.95,West,274,0.0,0.0,85,0.00,,,0.00,Wunderground v.1.15,2013-07-12 20:20:00,
2013-07-12 16:26:00,78.5,73.6,29.95,West,274,0.0,1.0,85,0.00,,,0.00,Wunderground v.1.15,2013-07-12 20:26:00,
2013-07-12 16:32:00,78.7,73.8,29.94,SW,225,0.0,0.0,85,0.00,,,0.00,Wunderground v.1.15,2013-07-12 20:32:00,
2013-07-12 16:38:00,78.9,74.4,29.95,SW,225,0.0,0.0,86,0.00,,,0.00,Wunderground v.1.15,2013-07-12 20:38:00,
2013-07-12 16:44:00,79.1,73.8,29.95,WSW,244,0.0,1.0,84,0.00,,,0.00,Wunderground v.1.15,2013-07-12 20:44:00,
2013-07-12 16:50:00,80.0,74.4,29.95,WSW,257,1.0,1.0,83,0.00,,,0.00,Wunderground v.1.15,2013-07-12 20:50:00,
2013-07-12 16:56:00,80.5,74.1,29.95,South,189,1.0,1.0,81,0.00,,,0.00,Wunderground v.1.15,2013-07-12 20:56:00,
2013-07-12 17:02:00,81.4,74.3,29.95,NE,41,0.0,1.0,79,0.00,,,0.00,Wunderground v.1.15,2013-07-12 21:02:00,
2013-07-12 17:08:00,81.8,73.5,29.95,West,276,1.0,4.0,76,0.00,,,0.00,Wunderground v.1.15,2013-07-12 21:08:00,
2013-07-12 17:14:00,82.1,72.6,29.95,West,261,2.0,2.0,73,0.00,,,0.00,Wunderground v.1.15,2013-07-12 21:14:00,
2013-07-12 17:20:00,82.3,72.8,29.95,SE,137,2.0,2.0,73,0.00,,,0.00,Wunderground v.1.15,2013-07-12 21:20:00,
2013-07-12 17:26:00,81.8,72.7,29.95,SW,220,1.0,2.0,74,0.00,,,0.00,Wunderground v.1.15,2013-07-12 21:26:00,
2013-07-12 17:32:00,81.5,72.4,29.96,West,277,1.0,2.0,74,0.00,,,0.00,Wunderground v.1.15,2013-07-12 21:32:00,
2013-07-12 17:38:00,81.1,72.4,29.96,WSW,247,1.0,2.0,75,0.00,,,0.00,Wunderground v.1.15,2013-07-12 21:38:00,
2013-07-12 17:44:00,81.0,72.7,29.96,West,266,1.0,2.0,76,0.00,,,0.00,Wunderground v.1.15,2013-07-12 21:44:00,
2013-07-12 17:50:00,80.7,72.8,29.96,SW,222,1.0,1.0,77,0.00,,,0.00,Wunderground v.1.15,2013-07-12 21:50:00,
2013-07-12 17:56:00,81.0,72.7,29.97,SE,139,2.0,3.0,76,0.00,,,0.00,Wunderground v.1.15,2013-07-12 21:56:00,
2013-07-12 18:02:00,81.0,72.7,29.97,WNW,282,2.0,2.0,76,0.00,,,0.00,Wunderground v.1.15,2013-07-12 22:02:00,
2013-07-12 18:08:00,81.1,73.2,29.96,SSE,166,2.0,3.0,77,0.00,,,0.00,Wunderground v.1.15,2013-07-12 22:08:00,
2013-07-12 18:14:00,80.8,72.9,29.97,SE,129,2.0,3.0,77,0.00,,,0.00,Wunderground v.1.15,2013-07-12 22:14:00,
2013-07-12 18:20:00,80.6,72.7,29.97,SSE,149,1.0,1.0,77,0.00,,,0.00,Wunderground v.1.15,2013-07-12 22:20:00,
2013-07-12 18:26:00,80.6,73.1,29.97,SE,135,1.0,2.0,78,0.00,,,0.00,Wunderground v.1.15,2013-07-12 22:26:00,
2013-07-12 18:32:00,80.5,72.6,29.98,South,183,1.0,2.0,77,0.00,,,0.00,Wunderground v.1.15,2013-07-12 22:32:00,
2013-07-12 18:38:00,80.1,73.0,29.98,SSE,165,2.0,2.0,79,0.00,,,0.00,Wunderground v.1.15,2013-07-12 22:38:00,
2013-07-12 18:44:00,79.4,71.9,29.98,WSW,258,2.0,3.0,78,0.00,,,0.00,Wunderground v.1.15,2013-07-12 22:44:00,
2013-07-12 18:50:00,79.3,72.6,29.98,SE,128,1.0,1.0,80,0.00,,,0.00,Wunderground v.1.15,2013-07-12 22:50:00,
2013-07-12 18:56:00,79.4,72.3,29.98,SW,220,1.0,1.0,79,0.00,,,0.00,Wunderground v.1.15,2013-07-12 22:56:00,
2013-07-12 19:02:00,79.5,72.0,29.99,SW,235,1.0,1.0,78,0.00,,,0.00,Wunderground v.1.15,2013-07-12 23:02:00,
2013-07-12 19:08:00,79.3,71.5,29.99,South,179,1.0,2.0,77,0.00,,,0.00,Wunderground v.1.15,2013-07-12 23:08:00,
2013-07-12 19:14:00,79.1,71.3,30.00,South,174,1.0,2.0,77,0.00,,,0.00,Wunderground v.1.15,2013-07-12 23:14:00,
2013-07-12 19:20:00,78.7,70.9,30.00,SE,142,2.0,2.0,77,0.00,,,0.00,Wunderground v.1.15,2013-07-12 23:20:00,
2013-07-12 19:26:00,78.4,70.6,30.00,WNW,291,2.0,5.0,77,0.00,,,0.00,Wunderground v.1.15,2013-07-12 23:26:00,
2013-07-12 19:32:00,78.0,70.2,29.99,SSE,161,2.0,2.0,77,0.00,,,0.00,Wunderground v.1.15,2013-07-12 23:32:00,
2013-07-12 19:38:00,77.5,70.1,30.00,SSE,158,1.0,2.0,78,0.00,,,0.00,Wunderground v.1.15,2013-07-12 23:38:00,
2013-07-12 19:44:00,77.3,69.9,29.99,SSW,200,2.0,7.0,78,0.00,,,0.00,Wunderground v.1.15,2013-07-12 23:44:00,
2013-07-12 19:50:00,77.0,70.0,29.99,SE,129,2.0,2.0,79,0.00,,,0.00,Wunderground v.1.15,2013-07-12 23:50:00,
2013-07-12 19:56:00,76.4,69.8,30.00,WSW,239,2.0,3.0,80,0.00,,,0.00,Wunderground v.1.15,2013-07-12 23:56:00,
2013-07-12 20:02:00,76.0,69.7,30.00,SSE,152,1.0,3.0,81,0.00,,,0.00,Wunderground v.1.15,2013-07-13 00:02:00,
2013-07-12 20:08:00,75.7,69.8,30.00,SE,127,1.0,3.0,82,0.00,,,0.00,Wunderground v.1.15,2013-07-13 00:08:00,
2013-07-12 20:14:00,75.4,69.9,30.01,SSW,210,1.0,1.0,83,0.00,,,0.00,Wunderground v.1.15,2013-07-13 00:14:00,
2013-07-12 20:20:00,75.3,69.8,30.00,SSW,200,0.0,0.0,83,0.00,,,0.00,Wunderground v.1.15,2013-07-13 00:20:00,
2013-07-12 20:26:00,75.0,69.8,29.99,SW,214,1.0,3.0,84,0.00,,,0.00,Wunderground v.1.15,2013-07-13 00:26:00,
2013-07-12 20:32:00,74.8,69.6,29.99,SW,231,1.0,1.0,84,0.00,,,0.00,Wunderground v.1.15,2013-07-13 00:32:00,
2013-07-12 20:38:00,74.6,69.4,29.99,South,188,1.0,1.0,84,0.00,,,0.00,Wunderground v.1.15,2013-07-13 00:38:00,
2013-07-12 20:44:00,74.4,69.6,29.99,West,262,1.0,3.0,85,0.00,,,0.00,Wunderground v.1.15,2013-07-13 00:44:00,
2013-07-12 20:50:00,74.2,69.7,29.98,WSW,252,1.0,2.0,86,0.00,,,0.00,Wunderground v.1.15,2013-07-13 00:50:00,
2013-07-12 20:56:00,74.1,69.6,29.99,WSW,253,0.0,2.0,86,0.00,,,0.00,Wunderground v.1.15,2013-07-13 00:56:00,
2013-07-12 21:02:00,74.0,69.5,29.99,SSE,160,0.0,1.0,86,0.00,,,0.00,Wunderground v.1.15,2013-07-13 01:02:00,
2013-07-12 21:08:00,73.9,69.8,29.99,ESE,123,0.0,1.0,87,0.00,,,0.00,Wunderground v.1.15,2013-07-13 01:08:00,
2013-07-12 21:16:00,73.8,69.7,29.99,WSW,251,0.0,1.0,87,0.00,,,0.00,Wunderground v.1.15,2013-07-13 01:16:00,
2013-07-12 21:22:00,73.8,69.7,30.00,ESE,119,0.0,0.0,87,0.00,,,0.00,Wunderground v.1.15,2013-07-13 01:22:00,
2013-07-12 21:28:00,73.9,69.8,30.00,ESE,119,0.0,0.0,87,0.00,,,0.00,Wunderground v.1.15,2013-07-13 01:28:00,
2013-07-12 21:34:00,73.9,69.8,30.00,ESE,119,0.0,0.0,87,0.00,,,0.00,Wunderground v.1.15,2013-07-13 01:34:00,
2013-07-12 21:40:00,73.8,69.7,30.00,WSW,246,0.0,1.0,87,0.00,,,0.00,Wunderground v.1.15,2013-07-13 01:40:00,
2013-07-12 21:46:00,73.7,69.6,30.00,WSW,250,0.0,1.0,87,0.00,,,0.00,Wunderground v.1.15,2013-07-13 01:46:00,
2013-07-12 21:52:00,73.6,69.8,30.01,WSW,250,0.0,0.0,88,0.00,,,0.00,Wunderground v.1.15,2013-07-13 01:52:00,
2013-07-12 21:58:00,73.5,69.7,30.01,SSW,205,0.0,0.0,88,0.00,,,0.00,Wunderground v.1.15,2013-07-13 01:58:00,
2013-07-12 22:04:00,73.4,69.6,30.02,West,276,1.0,1.0,88,0.00,,,0.00,Wunderground v.1.15,2013-07-13 02:04:00,
2013-07-12 22:10:00,73.4,69.6,30.02,South,180,1.0,1.0,88,0.00,,,0.00,Wunderground v.1.15,2013-07-13 02:10:00,
2013-07-12 22:16:00,73.4,69.6,30.02,WSW,252,1.0,2.0,88,0.00,,,0.00,Wunderground v.1.15,2013-07-13 02:16:00,
2013-07-12 22:22:00,73.4,69.6,30.02,South,173,1.0,1.0,88,0.00,,,0.00,Wunderground v.1.15,2013-07-13 02:22:00,
2013-07-12 22:28:00,73.3,69.5,30.02,WSW,256,1.0,3.0,88,0.00,,,0.00,Wunderground v.1.15,2013-07-13 02:28:00,
2013-07-12 22:34:00,73.3,69.5,30.02,SW,219,1.0,3.0,88,0.00,,,0.00,Wunderground v.1.15,2013-07-13 02:34:00,
2013-07-12 22:40:00,73.2,69.4,30.02,SE,135,1.0,1.0,88,0.00,,,0.00,Wunderground v.1.15,2013-07-13 02:40:00,
2013-07-12 22:46:00,73.1,69.3,30.03,ESE,123,1.0,3.0,88,0.00,,,0.00,Wunderground v.1.15,2013-07-13 02:46:00,
2013-07-12 22:52:00,73.0,69.2,30.03,SE,144,1.0,2.0,88,0.00,,,0.00,Wunderground v.1.15,2013-07-13 02:52:00,
2013-07-12 22:58:00,72.9,69.1,30.03,SSE,154,1.0,2.0,88,0.00,,,0.00,Wunderground v.1.15,2013-07-13 02:58:00,
2013-07-12 23:04:00,72.8,69.4,30.03,WSW,248,0.0,1.0,89,0.00,,,0.00,Wunderground v.1.15,2013-07-13 03:04:00,
2013-07-12 23:12:00,72.7,69.3,30.03,SSE,147,1.0,1.0,89,0.00,,,0.00,Wunderground v.1.15,2013-07-13 03:12:00,
2013-07-12 23:18:00,72.7,69.3,30.04,ESE,120,1.0,2.0,89,0.00,,,0.00,Wunderground v.1.15,2013-07-13 03:18:00,
2013-07-12 23:24:00,72.7,69.3,30.04,SSE,151,1.0,1.0,89,0.00,,,0.00,Wunderground v.1.15,2013-07-13 03:24:00,
2013-07-12 23:30:00,72.8,69.0,30.03,SSW,193,1.0,1.0,88,0.00,,,0.00,Wunderground v.1.15,2013-07-13 03:30:00,
2013-07-12 23:36:00,72.8,69.0,30.03,WSW,247,1.0,1.0,88,0.00,,,0.00,Wunderground v.1.15,2013-07-13 03:36:00,
2013-07-12 23:42:00,72.8,69.4,30.03,SSE,156,0.0,1.0,89,0.00,,,0.00,Wunderground v.1.15,2013-07-13 03:42:00,
2013-07-12 23:50:00,72.8,69.0,30.04,SE,137,0.0,0.0,88,0.00,,,0.00,Wunderground v.1.15,2013-07-13 03:50:00,
2013-07-12 23:56:00,72.8,69.4,30.04,SW,220,1.0,1.0,89,0.00,,,0.00,Wunderground v.1.15,2013-07-13 03:56:00,